Location: Unspecified
(0.0000°N, 0.0000°E)
Time: 10:18:39
(UTC+02:00)

Amateur Radio Satellites - All Passes

Search period start: 30 June 2015 09:48
Search period end: 01 July 2015 09:48
Location: Unspecified, 0.0000°N, 0.0000°E

Satellite Date Start Highest point End Downlink Frequencies (MHz)
Time Altitude Azimuth
COMPASS 1 30 Jun 09:52:25 09:55:15 18° 100° (E) 09:58:16 437.405
AUBIESAT-1 30 Jun 09:54:10 09:57:24 37° 76° (ENE) 10:00:31 437.475
CINEMA 3 30 Jun 10:10:20 10:13:43 24° 101° (E) 10:17:21 145.822/145.860
AIST 2 30 Jun 10:12:52 10:16:21 25° 293° (WNW) 10:19:46 435.215
CUSAT 1 30 Jun 10:16:17 10:23:34 34° 274° (W) 10:29:57 437.405
HO-68 30 Jun 10:23:02 10:30:12 90° 100° (E) 10:37:25 435.675
M-CUBED/EXP-1 PRIME 30 Jun 10:23:18 10:26:43 46° 254° (WSW) 10:29:55 437.505
DOVE 4 30 Jun 10:23:23 10:27:31 74° 281° (W) 10:31:50 437.250
SRMSAT 30 Jun 10:29:34 10:30:57 11° 185° (S) 10:32:19 437.500
SEEDS 30 Jun 10:40:53 10:45:05 59° 281° (WNW) 10:49:19 437.485
Oscar 11 30 Jun 10:41:52 10:45:32 28° 101° (E) 10:49:20 145.826/435.025
DANDE 30 Jun 10:44:13 10:51:22 28° 275° (W) 10:57:47 436.750
GOMX 1 30 Jun 10:54:05 10:56:27 14° 279° (W) 10:58:36 467.674
UWE-3 30 Jun 10:58:07 11:01:59 33° 101° (E) 11:06:01 435.000/436.395/437.385
FUNcube-1 30 Jun 10:59:57 11:03:24 24° 101° (E) 11:07:03 145.935
Cosmos 2499 30 Jun 11:02:40 11:04:49 12° 98° (E) 11:07:42 435.465 / 435.565
AAUSAT CUBESAT 2 30 Jun 11:05:07 11:09:07 42° 281° (W) 11:13:07 437.432
GONETS M04 30 Jun 11:06:09 11:14:55 65° 274° (W) 11:23:34
CUTE 1.7 + AOD 2 30 Jun 11:22:18 11:24:18 13° 279° (W) 11:26:00 437.475
HUMSAT D 30 Jun 11:23:07 11:25:53 18° 101° (E) 11:28:52 437.325/437.525
UNISAT 6 30 Jun 11:27:11 11:30:05 18° 80° (E) 11:33:07 437.425
COMPASS 1 30 Jun 11:27:55 11:30:48 17° 280° (W) 11:33:30 437.405
CUBEBUG 2 30 Jun 11:32:17 11:36:29 55° 281° (W) 11:40:50 437.445
JUGNU 30 Jun 11:36:53 11:39:55 14° 169° (S) 11:43:02 437.505
DX 1 30 Jun 11:45:26 11:49:13 30° 101° (ESE) 11:53:03 434.975-435.025
CINEMA 3 30 Jun 11:48:43 11:50:53 13° 278° (W) 11:52:48 145.822/145.860
DELFI C3 30 Jun 11:55:58 11:59:39 33° 281° (W) 12:03:20 145.870
NANOSAT C BR1 30 Jun 11:56:18 11:58:18 14° 80° (E) 12:00:35 145.865
ZACube-1 30 Jun 11:56:59 12:01:05 45° 281° (W) 12:05:18 437.345
AISAT 30 Jun 12:02:07 12:05:38 24° 101° (E) 12:09:15 437.250
POLYITAN 1 30 Jun 12:02:45 12:05:35 18° 80° (E) 12:08:35 437.675
DUCHIFAT 1 30 Jun 12:04:19 12:07:04 18° 80° (E) 12:10:01 145.980
ANTELSAT 30 Jun 12:10:04 12:14:33 75° 79° (ENE) 12:18:54 437.575/2403.000
UKube-1 30 Jun 12:13:37 12:17:55 73° 102° (ESE) 12:22:13 .
ESTCUBE 1 30 Jun 12:16:03 12:19:24 21° 101° (E) 12:22:53 437.505/2401.250
SRMSAT 30 Jun 12:19:53 12:21:19 11° 175° (S) 12:22:49 437.500
Oscar 11 30 Jun 12:19:53 12:21:38 12° 280° (W) 12:23:03 145.826/435.025
TIGRISAT 30 Jun 12:24:44 12:29:13 70° 258° (WSW) 12:33:34 435.000
50 SAT 30 Jun 12:31:38 12:35:33 83° 101° (E) 12:39:32 437.505
QB50P2 30 Jun 12:32:00 12:36:09 49° 79° (E) 12:40:18 145.880/145.840
POPSAT HIP 1 30 Jun 12:34:03 12:38:13 51° 79° (E) 12:42:22 437.405
CUBEBUG 1 30 Jun 12:35:52 12:39:40 31° 101° (E) 12:43:32 437.445
FUNcube-1 30 Jun 12:37:24 12:39:39 13° 279° (W) 12:41:39 145.935
BUGSAT 1 30 Jun 12:42:39 12:46:35 38° 79° (E) 12:50:34 437.445
Cosmos 2499 30 Jun 12:50:45 12:58:10 59° 274° (W) 13:05:07 435.465 / 435.565
VELOX 1 30 Jun 12:52:17 12:56:37 64° 282° (WNW) 13:00:58 145.980
HUMSAT D 30 Jun 12:58:35 13:01:30 18° 280° (W) 13:04:16 437.325/437.525
UNISAT 6 30 Jun 13:03:25 13:06:45 20° 259° (W) 13:09:52 437.425
QB50P1 30 Jun 13:13:45 13:17:47 39° 259° (W) 13:21:46 145.935-145.965
TISAT 1 30 Jun 13:23:59 13:26:37 17° 100° (E) 13:29:26 437.305
DX 1 30 Jun 13:24:21 13:25:22 10° 280° (W) 13:26:02 434.975-435.025
JUGNU 30 Jun 13:24:24 13:29:33 30° 162° (SSE) 13:34:46 437.505
NANOSAT C BR1 30 Jun 13:30:32 13:34:02 23° 259° (W) 13:37:23 145.865
POLYITAN 1 30 Jun 13:38:19 13:41:22 18° 259° (W) 13:44:13 437.675
DUCHIFAT 1 30 Jun 13:39:42 13:42:46 18° 259° (W) 13:45:38 145.980
AISAT 30 Jun 13:39:43 13:42:06 14° 280° (W) 13:44:12 437.250
ESTCUBE 1 30 Jun 13:53:06 13:56:09 17° 280° (W) 13:58:59 437.505/2401.250
SPROUT 30 Jun 13:56:38 14:00:53 86° 283° (WNW) 14:05:11 437.525
SRMSAT 30 Jun 14:07:19 14:11:26 19° 166° (SSE) 14:15:38 437.500
RS-15 30 Jun 14:34:48 14:46:30 57° 68° (ENE) 14:58:28 29.354- 29.394
BEESAT 30 Jun 14:42:42 14:46:20 23° 101° (E) 14:50:07 436.000
Oscar 19 30 Jun 14:56:03 15:01:10 61° 78° (ENE) 15:06:15 437.125/150
SWISSCUBE 30 Jun 14:56:45 15:01:10 39° 102° (ESE) 15:05:39 437.505
TISAT 1 30 Jun 14:59:21 15:02:16 18° 280° (W) 15:05:01 437.305
ITUPSAT 1 30 Jun 14:59:40 15:04:03 37° 101° (ESE) 15:08:29 437.325
ITAMSAT 1 30 Jun 15:00:11 15:01:39 11° 79° (E) 15:03:32 435.822/435.867
JUGNU 30 Jun 15:12:45 15:18:45 80° 159° (SSE) 15:24:47 437.505
KKS-1 30 Jun 15:40:37 15:42:20 12° 100° (E) 15:44:22 437.445
PCSat 30 Jun 15:46:17 15:49:13 15° 112° (ESE) 15:52:29 145.827
SRMSAT 30 Jun 15:55:20 16:01:02 44° 160° (SSE) 16:06:44 437.500
Gurwin Techsat 1B 30 Jun 16:01:26 16:06:45 76° 78° (ENE) 16:12:03 435.225
JAS-2 30 Jun 16:17:43 16:21:16 18° 81° (E) 16:24:56 435.910
BEESAT 30 Jun 16:20:39 16:24:03 19° 281° (W) 16:27:15 436.000
ITAMSAT 1 30 Jun 16:36:10 16:41:05 42° 258° (WSW) 16:45:57 435.822/435.867
SWISSCUBE 30 Jun 16:38:00 16:38:57 10° 280° (W) 16:39:28 437.505
ITUPSAT 1 30 Jun 16:40:20 16:41:52 11° 280° (W) 16:42:59 437.325
STARS 30 Jun 16:42:21 16:46:34 51° 101° (ESE) 16:50:51 437.465
RS-15 30 Jun 16:49:06 16:59:05 27° 245° (WSW) 17:08:25 29.354- 29.394
HORYU 2 30 Jun 16:51:55 16:55:30 25° 79° (E) 16:59:12 437.375
Cosmos 2491 30 Jun 16:59:34 17:08:26 85° 274° (W) 17:17:17 435.465 / 435.565
JUGNU 30 Jun 17:02:21 17:07:53 38° 341° (NNW) 17:13:24 437.505
AO-7 30 Jun 17:04:11 17:11:52 44° 75° (ENE) 17:19:40 29.400- 29.500
YUBILEINY 30 Jun 17:07:54 17:16:42 81° 266° (W) 17:25:32 435.215
AIST 1 30 Jun 17:10:10 17:14:30 81° 94° (E) 17:18:52
KKS-1 30 Jun 17:15:04 17:18:52 28° 281° (W) 17:22:36 437.445
PCSat 30 Jun 17:27:41 17:32:34 34° 290° (WNW) 17:37:23 145.827
SRMSAT 30 Jun 17:44:20 17:50:18 68° 338° (NNW) 17:56:14 437.500
SO-50 30 Jun 17:56:00 18:00:29 81° 294° (WNW) 18:05:05 436.795
JAS-2 30 Jun 18:01:37 18:06:23 27° 257° (WSW) 18:10:43 435.910
HORYU 2 30 Jun 18:29:37 18:32:02 14° 259° (W) 18:34:09 437.375
MOZHAYETS 4 30 Jun 18:33:58 18:38:27 47° 281° (W) 18:42:54
VERMONT LUNAR 30 Jun 18:34:40 18:37:26 27° 42° (NE) 18:40:15 437.305
Cosmos 2504 30 Jun 18:40:52 18:48:15 39° 86° (E) 18:56:14 435.465 / 435.565
JUGNU 30 Jun 18:53:37 18:57:25 17° 347° (NNW) 19:01:06 437.505
AO-7 30 Jun 18:57:56 19:04:32 25° 256° (WSW) 19:10:46 29.400- 29.500
Cubesat XI-IV 30 Jun 19:10:02 19:13:57 22° 79° (E) 19:18:04 437.490
SRMSAT 30 Jun 19:34:46 19:39:41 26° 343° (NNW) 19:44:32 437.500
BEESAT 3 30 Jun 19:40:29 19:43:34 23° 67° (ENE) 19:46:44 437.485
BEESAT 2 30 Jun 19:46:12 19:49:04 20° 67° (ENE) 19:52:03 435.950
VERMONT LUNAR 30 Jun 20:12:26 20:14:21 14° 221° (SW) 20:16:10 437.305
CUTE-I 30 Jun 20:15:53 20:21:10 60° 258° (WSW) 20:26:25 437.470
O/OREOS (USA 219) 30 Jun 20:16:09 20:20:20 37° 75° (ENE) 20:24:36 437.305
CUBESAT XI-V 30 Jun 20:24:46 20:29:04 37° 281° (W) 20:33:18 437.345
AIST 2 30 Jun 20:34:28 20:36:47 15° 66° (ENE) 20:39:18 435.215
Cosmos 2504 30 Jun 20:34:52 20:41:36 26° 264° (W) 20:48:16 435.465 / 435.565
JUGNU 30 Jun 20:47:02 20:47:25 10° 356° (N) 20:47:44 437.505
Cubesat XI-IV 30 Jun 20:49:36 20:53:56 24° 259° (WSW) 20:58:07 437.490
ISS 30 Jun 20:58:12 21:01:01 27° 234° (SW) 21:03:50 145.825
PHONESAT 2.4 30 Jun 20:59:28 21:02:56 56° 223° (SW) 21:06:24 2401.200-2431.200
PRISM 30 Jun 21:02:24 21:06:21 42° 282° (WNW) 21:10:16 437.425
STRAND 1 30 Jun 21:05:09 21:10:05 48° 282° (WNW) 21:14:59 437.568
DOVE 4 30 Jun 21:09:26 21:11:14 12° 81° (E) 21:13:25 437.250
CUSAT 1 30 Jun 21:18:56 21:21:35 58° 85° (E) 21:24:47 437.405
BEESAT 3 30 Jun 21:19:52 21:21:24 12° 246° (WSW) 21:22:42 437.485
BEESAT 2 30 Jun 21:24:53 21:27:01 14° 246° (WSW) 21:28:55 435.950
SRMSAT 30 Jun 21:27:00 21:29:34 13° 351° (N) 21:32:02 437.500
GOMX 1 30 Jun 21:37:11 21:42:32 53° 79° (E) 21:47:45 467.674
BRITE-PL 30 Jun 21:37:45 21:43:28 86° 258° (WSW) 21:49:08 437.365/2234.400
GONETS M04 30 Jun 21:44:33 21:51:46 31° 85° (E) 21:59:18
DANDE 30 Jun 21:51:09 21:53:42 58° 264° (W) 21:56:36 436.750
CUTE 1.7 + AOD 2 30 Jun 21:51:35 21:55:17 31° 80° (E) 21:59:02 437.475
AUBIESAT-1 30 Jun 21:53:35 21:57:56 47° 105° (ESE) 22:02:30 437.475
CANX-2 30 Jun 21:54:01 21:57:56 39° 79° (E) 22:01:52 2200.000
COMPASS 1 30 Jun 21:57:07 22:00:10 21° 80° (E) 22:03:20 437.405
AIST 2 30 Jun 22:12:15 22:15:14 19° 247° (WSW) 22:18:04 435.215
HO-68 30 Jun 22:14:42 22:21:54 77° 76° (ENE) 22:29:02 435.675
M-CUBED/EXP-1 PRIME 30 Jun 22:23:13 22:27:41 56° 285° (WNW) 22:32:21 437.505
CINEMA 3 30 Jun 22:26:17 22:30:58 46° 80° (E) 22:35:29 145.822/145.860
ZACube-1 30 Jun 22:35:03 22:35:22 10° 81° (E) 22:36:04 437.345
JUGNU 30 Jun 22:36:00 22:37:35 11° 7° (N) 22:39:14 437.505
DOVE 4 30 Jun 22:43:57 22:48:57 41° 258° (WSW) 22:53:44 437.250
SEEDS 30 Jun 22:46:55 22:50:57 47° 259° (W) 22:54:57 437.485
Oscar 11 30 Jun 22:50:33 22:54:31 37° 79° (E) 22:58:29 145.826/435.025
Cosmos 2499 30 Jun 23:08:14 23:13:43 20° 85° (E) 23:19:58 435.465 / 435.565
UWE-3 30 Jun 23:09:35 23:13:57 50° 79° (E) 23:18:12 435.000/436.395/437.385
AAUSAT CUBESAT 2 30 Jun 23:09:43 23:13:32 36° 259° (W) 23:17:17 437.432
FUNcube-1 30 Jun 23:09:45 23:13:44 34° 80° (E) 23:17:39 145.935
GOMX 1 30 Jun 23:19:27 23:20:30 10° 260° (W) 23:21:01 467.674
HUMSAT D 30 Jun 23:28:27 23:31:33 21° 80° (E) 23:34:46 437.325/437.525
COMPASS 1 30 Jun 23:33:23 23:35:43 14° 260° (W) 23:37:48 437.405
UNISAT 6 30 Jun 23:39:34 23:43:19 27° 101° (E) 23:47:17 437.425
GONETS M04 30 Jun 23:40:53 23:48:29 33° 265° (W) 23:55:51
CUBEBUG 2 30 Jun 23:45:29 23:49:44 36° 259° (WSW) 23:53:48 437.445
DX 1 30 Jun 23:54:58 23:59:07 42° 78° (ENE) 00:03:16 434.975-435.025
DELFI C3 30 Jun 23:56:31 00:00:07 32° 259° (W) 00:03:40 145.870
NANOSAT C BR1 01 Jul 00:02:02 00:04:33 16° 100° (E) 00:07:18 145.865
ZACube-1 01 Jul 00:07:42 00:11:40 32° 259° (WSW) 00:15:30 437.345
POLYITAN 1 01 Jul 00:09:10 00:12:21 22° 101° (E) 00:15:41 437.675
DUCHIFAT 1 01 Jul 00:10:03 00:13:07 21° 101° (E) 00:16:21 145.980
AISAT 01 Jul 00:13:50 00:17:58 37° 79° (E) 00:22:07 437.250
UKube-1 01 Jul 00:22:33 00:26:55 83° 260° (W) 00:31:15 .
JUGNU 01 Jul 00:23:11 00:27:26 21° 15° (NNE) 00:31:45 437.505
ANTELSAT 01 Jul 00:23:14 00:27:42 71° 281° (WNW) 00:32:17 437.575/2403.000
50 SAT 01 Jul 00:28:50 00:32:43 74° 79° (E) 00:36:32 437.505
ESTCUBE 1 01 Jul 00:29:46 00:33:47 33° 79° (ENE) 00:37:52 437.505/2401.250
TIGRISAT 01 Jul 00:37:50 00:42:06 45° 281° (W) 00:46:28 435.000
QB50P2 01 Jul 00:38:40 00:42:49 62° 101° (ESE) 00:47:00 145.880/145.840
POPSAT HIP 1 01 Jul 00:40:34 00:44:42 64° 101° (ESE) 00:48:53 437.405
CUBEBUG 1 01 Jul 00:45:52 00:50:06 45° 79° (E) 00:54:21 437.445
BUGSAT 1 01 Jul 00:46:19 00:50:05 40° 101° (E) 00:53:54 437.445
Cosmos 2499 01 Jul 00:58:40 01:06:41 50° 265° (W) 01:15:06 435.465 / 435.565
VELOX 1 01 Jul 01:04:28 01:08:44 42° 259° (WSW) 01:12:57 145.980
HUMSAT D 01 Jul 01:04:46 01:07:10 14° 260° (W) 01:09:20 437.325/437.525
SRMSAT 01 Jul 01:07:12 01:10:05 14° 11° (N) 01:13:03 437.500
UNISAT 6 01 Jul 01:17:43 01:20:01 13° 279° (W) 01:22:04 437.425
QB50P1 01 Jul 01:20:30 01:24:14 31° 281° (W) 01:27:57 145.935-145.965
TISAT 1 01 Jul 01:29:26 01:32:36 21° 80° (E) 01:35:54 437.305
NANOSAT C BR1 01 Jul 01:37:14 01:40:16 19° 280° (W) 01:43:10 145.865
POLYITAN 1 01 Jul 01:45:46 01:48:08 14° 280° (W) 01:50:17 437.675
DUCHIFAT 1 01 Jul 01:46:22 01:48:49 15° 280° (W) 01:51:03 145.980
SPROUT 01 Jul 02:04:51 02:09:10 65° 259° (WSW) 02:13:27 437.525
ESTCUBE 1 01 Jul 02:09:21 02:10:33 11° 260° (W) 02:11:24 437.505/2401.250
JUGNU 01 Jul 02:11:06 02:16:46 50° 20° (NNE) 02:22:26 437.505
RS-15 01 Jul 02:18:38 02:28:50 45° 113° (ESE) 02:39:04 29.354- 29.394
SRMSAT 01 Jul 02:54:49 02:59:52 29° 18° (NNE) 03:04:59 437.500
Gurwin Techsat 1B 01 Jul 03:02:53 03:05:21 14° 101° (E) 03:08:11 435.225
BEESAT 01 Jul 03:04:00 03:08:29 43° 79° (ENE) 03:13:00 436.000
TISAT 1 01 Jul 03:05:38 03:08:14 15° 260° (W) 03:10:37 437.305
SWISSCUBE 01 Jul 03:18:37 03:23:22 78° 79° (E) 03:28:09 437.505
ITUPSAT 1 01 Jul 03:21:47 03:26:33 74° 78° (ENE) 03:31:19 437.325
Oscar 19 01 Jul 03:29:48 03:34:47 51° 281° (WNW) 03:39:46 437.125/150
ITAMSAT 1 01 Jul 03:32:18 03:36:48 31° 102° (ESE) 03:41:24 435.822/435.867
Cosmos 2491 01 Jul 03:39:21 03:45:25 22° 84° (E) 03:52:00 435.465 / 435.565
YUBILEINY 01 Jul 03:47:21 03:53:43 24° 96° (E) 04:00:30 435.215
JAS-2 01 Jul 03:49:17 03:52:45 15° 102° (ESE) 03:57:00 435.910
KKS-1 01 Jul 03:52:05 03:55:10 19° 80° (E) 03:58:25 437.445
JUGNU 01 Jul 04:00:03 04:05:49 58° 201° (SSW) 04:11:34 437.505
PCSat 01 Jul 04:20:25 04:25:35 48° 70° (ENE) 04:30:47 145.827
RS-15 01 Jul 04:31:50 04:41:05 30° 294° (WNW) 04:49:50 29.354- 29.394
Gurwin Techsat 1B 01 Jul 04:40:21 04:45:14 37° 282° (WNW) 04:50:04 435.225
SRMSAT 01 Jul 04:43:16 04:49:12 79° 20° (NNE) 04:55:10 437.500
STARS 01 Jul 04:53:30 04:57:57 76° 78° (ENE) 05:02:21 437.465
HORYU 2 01 Jul 05:04:05 05:08:12 38° 102° (ESE) 05:12:24 437.375
ITAMSAT 1 01 Jul 05:12:59 05:16:13 16° 281° (W) 05:19:07 435.822/435.867
MOZHAYETS 4 01 Jul 05:16:11 05:18:15 13° 80° (E) 05:20:38
AIST 1 01 Jul 05:17:04 05:21:20 69° 266° (W) 05:25:36
KKS-1 01 Jul 05:28:25 05:31:41 19° 259° (W) 05:34:45 437.445
AO-7 01 Jul 05:30:02 05:38:18 70° 105° (ESE) 05:46:36 29.400- 29.500
JAS-2 01 Jul 05:30:19 05:37:31 66° 282° (WNW) 05:45:16 435.910
Cosmos 2491 01 Jul 05:34:00 05:42:11 45° 266° (W) 05:50:17 435.465 / 435.565
YUBILEINY 01 Jul 05:42:17 05:50:27 42° 274° (W) 05:58:24 435.215
JUGNU 01 Jul 05:50:32 05:55:05 23° 196° (SSW) 05:59:35 437.505
VERMONT LUNAR 01 Jul 06:05:52 06:07:56 17° 139° (SE) 06:10:03 437.305
PCSat 01 Jul 06:07:40 06:09:00 11° 247° (WSW) 06:09:52 145.827
SO-50 01 Jul 06:09:18 06:13:49 42° 248° (WSW) 06:18:11 436.795
SRMSAT 01 Jul 06:32:58 06:38:28 38° 199° (SSW) 06:43:58 437.500
MOZHAYETS 4 01 Jul 06:51:29 06:55:23 27° 259° (W) 06:59:11
Cosmos 2504 01 Jul 06:53:34 07:00:59 50° 95° (E) 07:08:01 435.465 / 435.565
CUBESAT XI-V 01 Jul 07:07:07 07:10:15 19° 80° (E) 07:13:35 437.345
CUTE-I 01 Jul 07:16:25 07:20:41 26° 101° (ESE) 07:25:07 437.470
AO-7 01 Jul 07:26:48 07:31:03 14° 284° (WNW) 07:34:30 29.400- 29.500
BEESAT 3 01 Jul 07:34:26 07:37:42 25° 113° (ESE) 07:41:05 437.485
BEESAT 2 01 Jul 07:40:53 07:44:01 22° 113° (ESE) 07:47:16 435.950
VERMONT LUNAR 01 Jul 07:42:22 07:44:48 20° 318° (NW) 07:47:10 437.305
JUGNU 01 Jul 07:42:49 07:44:52 12° 188° (S) 07:46:51 437.505
Cubesat XI-IV 01 Jul 07:48:20 07:53:37 65° 102° (ESE) 07:58:55 437.490
STRAND 1 01 Jul 07:59:39 08:03:44 25° 79° (ENE) 08:07:58 437.568
CUSAT 1 01 Jul 08:17:23 08:23:46 26° 99° (E) 08:29:53 437.405
SRMSAT 01 Jul 08:24:20 08:28:08 17° 193° (SSW) 08:31:53 437.500
O/OREOS (USA 219) 01 Jul 08:27:01 08:31:28 66° 105° (ESE) 08:35:54 437.305
ISS 01 Jul 08:31:14 08:34:23 47° 306° (NW) 08:37:30 145.825
AIST 2 01 Jul 08:32:29 08:35:29 20° 113° (ESE) 08:38:39 435.215
PHONESAT 2.4 01 Jul 08:37:44 08:41:09 72° 318° (NW) 08:44:33 2401.200-2431.200
CUBESAT XI-V 01 Jul 08:43:58 08:47:34 21° 260° (W) 08:51:01 437.345
Cosmos 2504 01 Jul 08:49:42 08:54:13 16° 275° (W) 08:57:58 435.465 / 435.565
DANDE 01 Jul 08:51:12 08:59:00 40° 97° (E) 09:06:21 436.750
CUTE-I 01 Jul 08:56:41 09:00:39 20° 281° (WNW) 09:04:25 437.470
PRISM 01 Jul 09:06:06 09:09:55 37° 259° (WSW) 09:13:43 437.425
BEESAT 3 01 Jul 09:14:10 09:15:35 11° 295° (WNW) 09:16:41 437.485
BEESAT 2 01 Jul 09:20:00 09:21:58 13° 294° (WNW) 09:23:43 435.950
DOVE 4 01 Jul 09:29:03 09:31:40 17° 101° (E) 09:34:34 437.250
STRAND 1 01 Jul 09:39:07 09:42:50 19° 259° (W) 09:46:19 437.568
